[[{"header":{"parameterUnit":"m.s-1","parameterCategory":2,"la1":30.2991,"la2":30.254,"lo1":-89.0895,"lo2":-89.0444,"dy":0.0017,"dx":0.0017,"nx":28,"ny":28,"refTime":"2023-07-18T21:00:00:Z","depth":"0","parameterNumber":2,"parameterNumberName":"U-component_of_CURRENTS"},"data":[0,0,0,0,0,0,0,0,0,0,0,0,0,0,0,0,0,0,0,0,0,0,0,0,0,0,0,0,0,0,0,0,0,0,0,0,0,0,0,0,0,0,0,0,0,0,0,0,0,0,0,0,0,0,0,0,0,0,0.3926,0.3927,0,0.401,0.4011,0.4012,0.3981,0.398,0.3978,0.3976,0.3994,0.3996,0.3998,0,0,0,0,0,0,0,0,0,0,0,0,0,0.3798,0.3799,0.3926,0.3928,0.3929,0.401,0.4011,0.4012,0.3982,0.398,0.3977,0.3976,0.3993,0.3995,0.3998,0,0,0,0,0,0,0,0,0,0,0,0,0,0.3862,0.38,0.3926,0.3925,0.3926,0.401,0.4011,0.4012,0.3982,0.3979,0.3977,0.3975,0.3992,0.3995,0.3998,0.4067,0,0,0.4007,0.4009,0,0,0,0,0,0,0,0,0.3858,0.3867,0.3924,0.3925,0.3927,0.3985,0.3972,0.4028,0.3983,0.3958,0.3976,0.3973,0.3988,0.3991,0.401,0.4068,0.4068,0.4008,0.401,0.4011,0.4012,0,0,0,0,0,0,0,0.3854,0.3863,0.3957,0.3926,0.3927,0.3941,0.3946,0.3983,0.3983,0.396,0.3959,0.3973,0.3987,0.4007,0.401,0.4069,0.4008,0.401,0.4012,0.4013,0.4202,0.4205,0,0,0,0,0,0,0.3849,0.3859,0.3954,0.396,0.3888,0.3945,0.3951,0.3967,0.3984,0.3986,0.3975,0.3971,0.4003,0.4007,0.4011,0.4067,0.4011,0.4014,0.4015,0.4199,0.4203,0.4207,0,0,0,0,0,0,0.3846,0.3857,0.3951,0.3913,0.3926,0.395,0.3968,0.397,0.3982,0.3996,0.3995,0.3983,0.4002,0.4006,0.4051,0.4068,0.4015,0.4018,0.4195,0.42,0.4205,0.4197,0,0,0,0,0,0,0.3842,0.3855,0.3874,0.3913,0.3928,0.3995,0.397,0.3973,0.3996,0.3991,0.4004,0.4004,0.4,0.4047,0.4054,0.4071,0.402,0.4191,0.4198,0.4203,0.4193,0.42,0.4207,0,0,0,0,0,0.3837,0.3867,0.3875,0.3887,0.395,0.3996,0.4005,0.4011,0.3999,0.4011,0.4028,0.4003,0.409,0.4052,0.4059,0.4078,0.4188,0.4196,0.4203,0.419,0.4199,0.4207,0,0,0,0,0,0,0.3841,0.3869,0.3877,0.392,0.3954,0.3991,0.4014,0.4019,0.4046,0.4041,0.4041,0.4044,0.409,0.4106,0.4064,0.4159,0.4138,0.4147,0.4125,0.4134,0.4141,0.4104,0.4023,0,0,0,0,0,0.3851,0.3864,0.3906,0.3942,0.3959,0.3989,0.4012,0.4018,0.4046,0.4054,0.4063,0.4093,0.4134,0.4146,0.4183,0.4235,0.4233,0.426,0.4267,0.4273,0.4255,0.4298,0.4305,0.423,0.423,0.423,0,0,0.3865,0.3882,0.3894,0.3942,0.3968,0.4006,0.3995,0.4032,0.4058,0.4055,0.4092,0.4117,0.4158,0.4209,0.4233,0.4216,0.4295,0.4282,0.4285,0.4264,0.4306,0.4312,0.4318,0.4235,0.4234,0.4233,0,0,0.3901,0.3915,0.3941,0.3966,0.4007,0.4024,0.4033,0.4072,0.408,0.4127,0.4139,0.4169,0.423,0.4253,0.4276,0.4355,0.4335,0.4383,0.4377,0.442,0.4424,0.4428,0.4422,0.4426,0.4381,0.4381,0.4381,0,0.3927,0.3957,0.3961,0.3996,0.4016,0.403,0.4067,0.4093,0.4139,0.4142,0.4134,0.4218,0.4245,0.4304,0.433,0.4362,0.4373,0.4327,0.4422,0.4426,0.443,0.4423,0.4427,0.4382,0.4381,0.4381,0.4381,0,0.3978,0.4006,0.4026,0.406,0.4082,0.4116,0.4144,0.4161,0.4163,0.4175,0.4218,0.426,0.4293,0.4327,0.4347,0.4406,0.4399,0.4423,0.438,0.4436,0.4427,0.4431,0.4382,0.4382,0.4382,0.4382,0,0,0.4027,0.4056,0.4065,0.4068,0.4112,0.4125,0.4167,0.4193,0.4184,0.4229,0.4228,0.4311,0.4302,0.4332,0.4368,0.4406,0.4444,0.4425,0.4427,0.4382,0.4508,0.4287,0.427,0.4488,0.4489,0.449,0.4483,0,0.4072,0.412,0.4129,0.4162,0.4179,0.4186,0.4202,0.4218,0.4221,0.4221,0.4261,0.4282,0.4318,0.4326,0.4373,0.4429,0.4458,0.4441,0.4493,0.4493,0.4259,0.4268,0.3975,0.3924,0.4487,0.4487,0.4488,0,0.4108,0.4132,0.4171,0.416,0.4167,0.4182,0.4164,0.4189,0.4197,0.4194,0.422,0.424,0.4301,0.4324,0.4419,0.441,0.4455,0.4494,0.4495,0.4286,0.4278,0.3968,0.391,0.3803,0.4494,0.4493,0.4493,0,0.4086,0.4141,0.4155,0.4165,0.4177,0.4172,0.4174,0.417,0.4157,0.418,0.4154,0.4227,0.4242,0.4333,0.4401,0.4422,0.4486,0.4524,0.4364,0.4349,0.4101,0.4059,0.3905,0.4589,0.4589,0.4589,0.4589,0,0.4097,0.4094,0.4137,0.4138,0.4117,0.414,0.4101,0.4107,0.4102,0.4066,0.4134,0.412,0.425,0.4295,0.4382,0.4348,0.4471,0.4334,0.4326,0.4089,0.4049,0.3946,0.3954,0.4589,0.4589,0.4589,0.4589,0,0.403,0.4073,0.4069,0.4097,0.4095,0.407,0.4043,0.4009,0.4023,0.3983,0.3991,0.4042,0.4085,0.4181,0.4302,0.4268,0.4145,0.4278,0.3953,0.3903,0.3579,0.3598,0.3322,0.3262,0.4057,0.4051,0.4046,0,0.3986,0.3993,0.4016,0.4008,0.4011,0.3987,0.3953,0.396,0.3926,0.3925,0.3897,0.3929,0.3922,0.396,0.3919,0.3942,0.3953,0.366,0.3629,0.3474,0.3496,0.3429,0.34,0.3317,0.3307,0.3298,0.3292,0,0.3922,0.3935,0.3949,0.3926,0.39,0.3847,0.3813,0.377,0.3771,0.3734,0.3706,0.3712,0.3676,0.3515,0.3479,0.3478,0.3394,0.3478,0.3427,0.2956,0.2769,0.2736,0.3408,0.3216,0.3224,0.3229,0.3233,0.3236,0.3876,0.3857,0.3888,0.3824,0.3796,0.3702,0.3591,0.3567,0.3484,0.3363,0.3488,0.3362,0.3194,0.3069,0.3038,0.2691,0.288,0.2567,0.2622,0.2585,0.2431,0.2885,0.2618,0.2621,0.2625,0.2628,0.263,0,0.3806,0.38,0.3777,0.3692,0.3577,0.3596,0.3476,0.3329,0.3168,0.3119,0.3056,0.2767,0.2533,0.2404,0.2043,0.1873,0.1849,0.1814,0.17,0.1744,0.2215,0.2084,0.1553,0.1553,0.1554,0.1554,0.1554,0.1554,0.3789,0.3735,0.3689,0.3488,0.3408,0.3182,0.307,0.2893,0.2785,0.2486,0.2261,0.2214,0.2026,0.1654,0.1355,0.1311,0.1293,0.1081,0.1295,0.1659,0.1736,0.181,0.1686,0.1081,0.108,0.0673,0.067,0.0668]},{"header":{"parameterUnit":"m.s-1","parameterCategory":2,"la1":30.2991,"la2":30.254,"lo1":-89.0895,"lo2":-89.0444,"dy":0.0017,"dx":0.0017,"nx":28,"ny":28,"refTime":"2023-07-18T21:00:00:Z","depth":"0","parameterNumber":3,"parameterNumberName":"V-component_of_CURRENTS"},"data":[0,0,0,0,0,0,0,0,0,0,0,0,0,0,0,0,0,0,0,0,0,0,0,0,0,0,0,0,0,0,0,0,0,0,0,0,0,0,0,0,0,0,0,0,0,0,0,0,0,0,0,0,0,0,0,0,0,0,0.0189,0.0189,0,0.0216,0.0217,0.0217,0.0235,0.0234,0.0234,0.0234,0.0339,0.0342,0.0345,0,0,0,0,0,0,0,0,0,0,0,0,0,0.0209,0.0208,0.0189,0.0189,0.0189,0.0216,0.0217,0.0218,0.0235,0.0234,0.0234,0.0234,0.0338,0.0342,0.0346,0,0,0,0,0,0,0,0,0,0,0,0,0,0.0218,0.0208,0.0189,0.0198,0.0199,0.0216,0.0217,0.0218,0.0235,0.0234,0.0234,0.0234,0.0337,0.0342,0.0346,0.0379,0,0,0.036,0.0362,0,0,0,0,0,0,0,0,0.0217,0.0217,0.0197,0.0198,0.0199,0.0219,0.0263,0.0275,0.0235,0.0225,0.0234,0.0234,0.0305,0.0312,0.0321,0.0384,0.0389,0.036,0.0363,0.0365,0.0366,0,0,0,0,0,0,0,0.0216,0.0216,0.0203,0.0197,0.0198,0.0221,0.0222,0.0265,0.027,0.0225,0.0226,0.0224,0.0306,0.0316,0.0324,0.039,0.036,0.0364,0.0367,0.0369,0.0516,0.0518,0,0,0,0,0,0,0.0204,0.0215,0.0202,0.0203,0.0204,0.022,0.0221,0.0215,0.0268,0.0274,0.0224,0.0225,0.0309,0.0318,0.0328,0.0403,0.0365,0.0369,0.0372,0.0515,0.0517,0.0518,0,0,0,0,0,0,0.0204,0.0202,0.0201,0.0208,0.0209,0.022,0.0213,0.0216,0.0224,0.0265,0.0274,0.0229,0.0309,0.0321,0.0372,0.0406,0.0371,0.0375,0.0514,0.0516,0.0517,0.0534,0,0,0,0,0,0,0.0205,0.0202,0.0197,0.0207,0.0208,0.0209,0.0213,0.0217,0.0222,0.0223,0.0272,0.0282,0.031,0.0365,0.0376,0.0412,0.0379,0.0512,0.0515,0.0517,0.0532,0.0536,0.054,0,0,0,0,0,0.0205,0.0202,0.0197,0.0195,0.02,0.0209,0.0212,0.0221,0.0223,0.0228,0.0265,0.028,0.0388,0.0369,0.0382,0.042,0.0511,0.0514,0.0517,0.053,0.0535,0.054,0,0,0,0,0,0,0.0214,0.0203,0.0198,0.0193,0.0197,0.021,0.0216,0.022,0.0252,0.0256,0.0295,0.0308,0.0365,0.0388,0.0367,0.0469,0.0453,0.0458,0.0459,0.0464,0.0468,0.0495,0.0382,0,0,0,0,0,0.021,0.0203,0.02,0.0197,0.0196,0.0205,0.0211,0.0215,0.024,0.0252,0.0288,0.0334,0.0387,0.0419,0.046,0.0518,0.0535,0.0551,0.0555,0.0558,0.059,0.0646,0.0659,0.0527,0.0527,0.0527,0,0,0.0212,0.0206,0.0202,0.0198,0.0203,0.0221,0.0209,0.0215,0.0247,0.0262,0.0319,0.0345,0.0403,0.0466,0.0495,0.0492,0.0594,0.0562,0.0564,0.0595,0.0651,0.0664,0.0675,0.0529,0.0529,0.0528,0,0,0.0221,0.0207,0.0206,0.0213,0.0213,0.0226,0.0226,0.0238,0.0258,0.0304,0.0332,0.0388,0.0449,0.0514,0.0553,0.0608,0.0607,0.0603,0.0659,0.0713,0.0724,0.0735,0.0725,0.0734,0.0613,0.0613,0.0613,0,0.0218,0.0226,0.021,0.022,0.024,0.023,0.0255,0.0277,0.0309,0.0349,0.0325,0.0455,0.0489,0.0608,0.062,0.0624,0.0619,0.0633,0.0718,0.073,0.074,0.0728,0.0738,0.0614,0.0614,0.0614,0.0614,0,0.0233,0.0246,0.0249,0.0264,0.0282,0.0298,0.0323,0.0352,0.037,0.0402,0.0495,0.0539,0.0627,0.0636,0.0646,0.0748,0.0705,0.0707,0.0705,0.0755,0.0737,0.0748,0.0616,0.0616,0.0615,0.0615,0,0,0.0212,0.025,0.0253,0.0286,0.031,0.0333,0.039,0.0455,0.0518,0.0543,0.0641,0.0717,0.0731,0.0777,0.0795,0.0841,0.0885,0.0799,0.0802,0.0786,0.0948,0.0907,0.0914,0.0888,0.0891,0.0893,0.0887,0,0.023,0.0273,0.0288,0.0355,0.039,0.0419,0.0483,0.0542,0.0592,0.0679,0.0739,0.0824,0.0787,0.0829,0.0871,0.0895,0.0921,0.0884,0.0907,0.0907,0.0864,0.093,0.0926,0.0921,0.0897,0.0899,0.09,0,0.0247,0.028,0.0341,0.0433,0.045,0.049,0.0608,0.0661,0.0773,0.0813,0.09,0.0933,0.1027,0.0975,0.1042,0.1008,0.0984,0.0981,0.0981,0.0959,0.0891,0.0879,0.0941,0.0924,0.0917,0.0915,0.0914,0,0.0272,0.033,0.039,0.0414,0.05,0.0551,0.0603,0.0708,0.0784,0.0904,0.097,0.106,0.112,0.1126,0.1103,0.1075,0.1146,0.1112,0.1051,0.1044,0.106,0.1051,0.112,0.1164,0.1164,0.1164,0.1164,0,0.0309,0.0366,0.0404,0.0444,0.0534,0.058,0.0696,0.0762,0.0879,0.0994,0.1038,0.1141,0.116,0.1195,0.1149,0.1132,0.1183,0.1086,0.1067,0.1058,0.1049,0.105,0.1039,0.1163,0.1164,0.1164,0.1164,0,0.0363,0.038,0.0455,0.0525,0.0552,0.062,0.0738,0.0833,0.0916,0.1069,0.1112,0.1218,0.1263,0.1247,0.1266,0.12,0.1179,0.1155,0.1108,0.1086,0.1006,0.0996,0.1048,0.1093,0.1099,0.1099,0.1098,0,0.041,0.0442,0.0503,0.0547,0.0585,0.0677,0.0757,0.085,0.0954,0.1123,0.121,0.1292,0.1382,0.1365,0.1281,0.1205,0.1181,0.1117,0.1091,0.1032,0.1008,0.0986,0.1021,0.1089,0.1089,0.1088,0.1088,0,0.0497,0.0497,0.0552,0.0619,0.0692,0.0788,0.09,0.0979,0.111,0.1229,0.1384,0.1461,0.1453,0.1412,0.1289,0.122,0.1127,0.1104,0.1093,0.1065,0.1003,0.1026,0.1009,0.1084,0.1084,0.1085,0.1085,0.1085,0.0558,0.0599,0.0638,0.0711,0.0791,0.0901,0.0978,0.1104,0.1255,0.1435,0.1501,0.1621,0.1526,0.1384,0.1284,0.1085,0.1118,0.1024,0.1026,0.1016,0.1055,0.0998,0.1024,0.1024,0.1024,0.1024,0.1024,0,0.063,0.0667,0.0736,0.0816,0.0902,0.0936,0.1081,0.1156,0.1314,0.1504,0.1634,0.1654,0.1555,0.1388,0.1129,0.103,0.1016,0.0979,0.0974,0.1026,0.1019,0.1014,0.0981,0.0981,0.0981,0.0981,0.0981,0.0981,0.0676,0.0742,0.0764,0.0894,0.0957,0.1062,0.1136,0.1241,0.1371,0.1537,0.1618,0.1697,0.1588,0.1225,0.1024,0.0983,0.0996,0.0931,0.0981,0.0971,0.0975,0.098,0.0975,0.0934,0.0934,0.1005,0.1006,0.1006]}],[{"header":{"parameterUnit":"m.s-1","parameterCategory":2,"la1":30.2991,"la2":30.254,"lo1":-89.0895,"lo2":-89.0444,"dy":0.0017,"dx":0.0017,"nx":28,"ny":28,"refTime":"2023-07-18T21:00:00:Z","depth":"2","parameterNumber":2,"parameterNumberName":"U-component_of_CURRENTS"},"data":[0,0,0,0,0,0,0,0,0,0,0,0,0,0,0,0,0,0,0,0,0,0,0,0,0,0,0,0,0,0,0,0,0,0,0,0,0,0,0,0,0,0,0,0,0,0,0,0,0,0,0,0,0,0,0,0,0,0,0.2161,0.216,0,0.2167,0.2167,0.2167,0.2173,0.2173,0.2173,0.2173,0.2317,0.2321,0.2325,0,0,0,0,0,0,0,0,0,0,0,0,0,0.2234,0.2232,0.2161,0.216,0.216,0.2167,0.2167,0.2167,0.2173,0.2173,0.2173,0.2173,0.2316,0.232,0.2325,0,0,0,0,0,0,0,0,0,0,0,0,0,0.2219,0.2232,0.2161,0.2163,0.2163,0.2167,0.2167,0.2167,0.2173,0.2173,0.2173,0.2173,0.2314,0.232,0.2326,0.2365,0,0,0.2344,0.2346,0,0,0,0,0,0,0,0,0.222,0.2217,0.2162,0.2162,0.2163,0.2167,0.2246,0.224,0.2173,0.2171,0.2173,0.2173,0.2279,0.2287,0.229,0.2372,0.2378,0.2344,0.2348,0.235,0.2352,0,0,0,0,0,0,0,0.2221,0.2217,0.2165,0.2162,0.2162,0.2191,0.2188,0.2244,0.223,0.2171,0.2171,0.2169,0.228,0.2284,0.2293,0.238,0.2344,0.2349,0.2353,0.2355,0.2669,0.2673,0,0,0,0,0,0,0.2212,0.2217,0.2165,0.2165,0.2189,0.2189,0.2186,0.2168,0.2226,0.2233,0.2169,0.2169,0.2274,0.2286,0.2299,0.25,0.235,0.2356,0.2359,0.2664,0.267,0.2675,0,0,0,0,0,0,0.2213,0.2206,0.2164,0.2191,0.2187,0.2187,0.2167,0.2168,0.2216,0.2222,0.2233,0.2221,0.2274,0.229,0.2391,0.2499,0.2358,0.2364,0.2658,0.2666,0.2672,0.2806,0,0,0,0,0,0,0.2215,0.2206,0.2227,0.219,0.2185,0.2207,0.2167,0.2168,0.2211,0.2212,0.227,0.228,0.2275,0.2382,0.2397,0.2505,0.2368,0.2652,0.2662,0.267,0.2795,0.2816,0.2835,0,0,0,0,0,0.2217,0.2232,0.2228,0.2224,0.2201,0.2209,0.2212,0.2212,0.2214,0.2253,0.2289,0.2281,0.2451,0.239,0.2406,0.2519,0.2648,0.2659,0.2669,0.2786,0.2812,0.2834,0,0,0,0,0,0,0.226,0.2232,0.2227,0.2229,0.224,0.221,0.2245,0.2247,0.2304,0.2318,0.2327,0.2341,0.2472,0.2481,0.2414,0.2639,0.2556,0.257,0.2639,0.2664,0.2683,0.2731,0.2373,0,0,0,0,0,0.2281,0.2294,0.227,0.2279,0.2288,0.2282,0.2298,0.2297,0.232,0.2344,0.2385,0.2446,0.2524,0.2579,0.2632,0.2754,0.2741,0.2844,0.2864,0.288,0.2933,0.3027,0.3059,0.271,0.271,0.271,0,0,0.2295,0.2286,0.2291,0.2293,0.2298,0.2312,0.2294,0.2327,0.2364,0.2356,0.2453,0.2514,0.2569,0.2696,0.276,0.2723,0.2954,0.2894,0.2907,0.2952,0.3041,0.3075,0.3105,0.2718,0.2716,0.2715,0,0,0.2315,0.2328,0.2344,0.2359,0.238,0.2377,0.2401,0.2414,0.246,0.2546,0.2566,0.2709,0.2787,0.2881,0.2928,0.3103,0.3048,0.3118,0.3271,0.3361,0.339,0.3416,0.3348,0.3368,0.3138,0.3138,0.3139,0,0.2349,0.2347,0.2356,0.2374,0.2403,0.2411,0.2444,0.248,0.2533,0.2618,0.2597,0.2831,0.2889,0.3088,0.3161,0.3156,0.3131,0.3165,0.3385,0.3411,0.3435,0.3361,0.3381,0.3146,0.3145,0.3144,0.3144,0,0.2356,0.2383,0.24,0.2423,0.2461,0.2499,0.2533,0.2614,0.2675,0.273,0.2948,0.3041,0.3203,0.325,0.3265,0.3499,0.3392,0.3383,0.3315,0.3478,0.3388,0.3406,0.3157,0.3154,0.3152,0.315,0,0,0.2392,0.2404,0.2429,0.2465,0.2504,0.2543,0.2631,0.2749,0.2867,0.2971,0.3141,0.335,0.3449,0.3518,0.3583,0.3691,0.3824,0.3634,0.3635,0.3548,0.3907,0.3598,0.3585,0.3845,0.3851,0.3857,0.3738,0,0.2421,0.2468,0.2472,0.2556,0.2592,0.2652,0.2752,0.2869,0.2981,0.3142,0.3312,0.3476,0.3529,0.3638,0.3778,0.3802,0.3894,0.385,0.3782,0.3778,0.3472,0.3608,0.3335,0.3191,0.3755,0.3758,0.376,0,0.246,0.2486,0.2571,0.2668,0.2701,0.2774,0.2987,0.3069,0.3276,0.3365,0.3574,0.3653,0.3871,0.3869,0.4039,0.3996,0.4012,0.4006,0.4001,0.3699,0.3508,0.3144,0.3201,0.3788,0.3786,0.3784,0.3782,0,0.2523,0.2585,0.2676,0.2702,0.2796,0.2914,0.3001,0.3196,0.3287,0.3521,0.3582,0.3835,0.3926,0.4037,0.4063,0.406,0.4155,0.4123,0.385,0.382,0.3574,0.3511,0.4288,0.4288,0.4288,0.4289,0.4289,0,0.2566,0.2634,0.2738,0.2783,0.2936,0.3013,0.3209,0.332,0.3484,0.3582,0.3734,0.3822,0.3988,0.4038,0.408,0.3979,0.417,0.3902,0.3816,0.3594,0.3539,0.407,0.4047,0.4284,0.4285,0.4286,0.4287,0,0.2593,0.2653,0.2757,0.2906,0.2963,0.3096,0.3236,0.335,0.3503,0.3614,0.3665,0.3809,0.385,0.3919,0.4025,0.3923,0.3899,0.3835,0.3475,0.335,0.3478,0.3463,0.3478,0.3467,0.3458,0.345,0.3444,0,0.259,0.2655,0.2838,0.291,0.2984,0.3148,0.3234,0.3367,0.3426,0.358,0.3597,0.3684,0.3662,0.361,0.3529,0.3431,0.3693,0.308,0.3071,0.3504,0.3419,0.3418,0.3416,0.2755,0.2743,0.2734,0.2726,0,0.2559,0.2674,0.2758,0.292,0.3034,0.3104,0.3221,0.3228,0.3356,0.3384,0.3423,0.3411,0.3338,0.3088,0.292,0.2863,0.3058,0.2869,0.3507,0.2978,0.2807,0.2727,0.2753,0.2642,0.2651,0.2657,0.2661,0.2665,0.2551,0.2614,0.2767,0.2913,0.302,0.305,0.3039,0.3046,0.3037,0.2959,0.3105,0.2912,0.285,0.2398,0.23,0.2229,0.2452,0.2338,0.2376,0.2422,0.2337,0.2158,0.1846,0.185,0.1853,0.1856,0.1858,0,0.2518,0.2605,0.2721,0.2854,0.2914,0.302,0.3005,0.2878,0.2728,0.2602,0.2523,0.2132,0.1857,0.1879,0.1601,0.1485,0.1581,0.1447,0.1609,0.1688,0.176,0.1653,0.0974,0.0972,0.097,0.0968,0,0,0.2488,0.2562,0.2621,0.2708,0.2821,0.2792,0.2749,0.2508,0.2327,0.1951,0.1742,0.1691,0.1714,0.13,0.1229,0.108,0.1393,0.1015,0.1717,0.1985,0.2056,0.2246,0.2161,0,0,0,0,0]},{"header":{"parameterUnit":"m.s-1","parameterCategory":2,"la1":30.2991,"la2":30.254,"lo1":-89.0895,"lo2":-89.0444,"dy":0.0017,"dx":0.0017,"nx":28,"ny":28,"refTime":"2023-07-18T21:00:00:Z","depth":"2","parameterNumber":3,"parameterNumberName":"V-component_of_CURRENTS"},"data":[0,0,0,0,0,0,0,0,0,0,0,0,0,0,0,0,0,0,0,0,0,0,0,0,0,0,0,0,0,0,0,0,0,0,0,0,0,0,0,0,0,0,0,0,0,0,0,0,0,0,0,0,0,0,0,0,0,0,-0.0448,-0.0448,0,-0.0459,-0.0459,-0.046,-0.0471,-0.0471,-0.0471,-0.0472,-0.0434,-0.0433,-0.0432,0,0,0,0,0,0,0,0,0,0,0,0,0,-0.0427,-0.0427,-0.0448,-0.0448,-0.0448,-0.0459,-0.0459,-0.046,-0.0471,-0.0471,-0.0472,-0.0472,-0.0435,-0.0434,-0.0432,0,0,0,0,0,0,0,0,0,0,0,0,0,-0.0437,-0.0428,-0.0448,-0.0455,-0.0456,-0.0459,-0.0459,-0.046,-0.0471,-0.0471,-0.0472,-0.0472,-0.0435,-0.0434,-0.0432,-0.0418,0,0,-0.0427,-0.0426,0,0,0,0,0,0,0,0,-0.0437,-0.0438,-0.0454,-0.0454,-0.0455,-0.0464,-0.0439,-0.0443,-0.0471,-0.0465,-0.0472,-0.0472,-0.0439,-0.0437,-0.044,-0.0416,-0.0415,-0.0427,-0.0426,-0.0425,-0.0425,0,0,0,0,0,0,0,-0.0436,-0.0438,-0.0452,-0.0454,-0.0455,-0.0455,-0.0456,-0.044,-0.045,-0.0466,-0.0467,-0.0468,-0.044,-0.0442,-0.0439,-0.0414,-0.0427,-0.0425,-0.0424,-0.0424,-0.0382,-0.0382,0,0,0,0,0,0,-0.0434,-0.0437,-0.0452,-0.0453,-0.0446,-0.0455,-0.0457,-0.0461,-0.0452,-0.0451,-0.0467,-0.0468,-0.0445,-0.0441,-0.0438,-0.04,-0.0425,-0.0424,-0.0423,-0.0382,-0.0382,-0.0382,0,0,0,0,0,0,-0.0434,-0.0436,-0.0452,-0.0445,-0.0447,-0.0455,-0.046,-0.0461,-0.0477,-0.0453,-0.0452,-0.0483,-0.0445,-0.044,-0.0428,-0.04,-0.0423,-0.0421,-0.0382,-0.0382,-0.0382,-0.0337,0,0,0,0,0,0,-0.0433,-0.0436,-0.045,-0.0445,-0.0447,-0.046,-0.0459,-0.0461,-0.0476,-0.0477,-0.0465,-0.0462,-0.0445,-0.043,-0.0426,-0.0398,-0.042,-0.0382,-0.0382,-0.0382,-0.0339,-0.0336,-0.0333,0,0,0,0,0,-0.0433,-0.0441,-0.0451,-0.0453,-0.0463,-0.046,-0.0462,-0.0468,-0.0477,-0.0484,-0.0473,-0.0463,-0.0426,-0.0429,-0.0424,-0.0394,-0.0382,-0.0382,-0.0382,-0.034,-0.0336,-0.0333,0,0,0,0,0,0,-0.042,-0.0442,-0.0453,-0.0464,-0.0468,-0.0462,-0.0472,-0.0477,-0.0477,-0.0481,-0.0461,-0.0456,-0.0433,-0.043,-0.0434,-0.0386,-0.0402,-0.0401,-0.0372,-0.0369,-0.0366,-0.0275,-0.0419,0,0,0,0,0,-0.0429,-0.0453,-0.0459,-0.0467,-0.0473,-0.0478,-0.0484,-0.0488,-0.0482,-0.0484,-0.0477,-0.0461,-0.0426,-0.0413,-0.0397,-0.0372,-0.0329,-0.0353,-0.0349,-0.0347,-0.0272,-0.0147,-0.0123,-0.0381,-0.0381,-0.0381,0,0,-0.0421,-0.0441,-0.045,-0.0469,-0.0475,-0.0478,-0.0482,-0.0492,-0.0486,-0.0477,-0.0476,-0.0455,-0.0421,-0.0387,-0.0376,-0.038,-0.0282,-0.0346,-0.0344,-0.0269,-0.0144,-0.0118,-0.0094,-0.0381,-0.0381,-0.0381,0,0,-0.0413,-0.044,-0.0458,-0.0468,-0.0487,-0.0488,-0.0495,-0.0503,-0.0502,-0.0498,-0.0474,-0.0414,-0.0423,-0.0344,-0.0314,-0.0282,-0.0272,-0.032,-0.0218,-0.01,-0.0076,-0.0053,-0.0087,-0.0067,-0.0313,-0.0313,-0.0313,0,-0.0414,-0.0428,-0.0457,-0.0472,-0.0475,-0.0494,-0.0493,-0.0493,-0.0495,-0.0452,-0.05,-0.0377,-0.0374,-0.0227,-0.0226,-0.0261,-0.0252,-0.0235,-0.0089,-0.0065,-0.0042,-0.008,-0.0059,-0.0311,-0.0311,-0.0312,-0.0312,0,-0.0413,-0.0428,-0.0435,-0.0466,-0.047,-0.0477,-0.0477,-0.047,-0.0479,-0.0444,-0.0336,-0.0295,-0.0183,-0.0207,-0.0209,-0.0041,-0.0116,-0.0102,-0.0084,-0.0012,-0.0061,-0.0039,-0.0308,-0.0309,-0.031,-0.031,0,0,-0.0435,-0.0435,-0.045,-0.0438,-0.0471,-0.0462,-0.0446,-0.0395,-0.0311,-0.0309,-0.0165,-0.0107,-0.003,0.0016,0.0043,0.0132,0.0229,0.0079,0.0084,0.0069,0.0384,0.032,0.0335,0.027,0.0277,0.0282,0.0242,0,-0.0438,-0.044,-0.0448,-0.0436,-0.043,-0.0423,-0.0379,-0.0329,-0.0274,-0.0146,-0.0042,0.0092,0.0037,0.0129,0.0217,0.0244,0.0309,0.0233,0.0301,0.0301,0.026,0.037,0.033,0.0296,0.0263,0.0267,0.0269,0,-0.0464,-0.0454,-0.0439,-0.0377,-0.037,-0.0348,-0.0238,-0.019,-0.0017,0.0047,0.0224,0.0301,0.0465,0.0413,0.0536,0.0481,0.0462,0.0454,0.0453,0.043,0.0287,0.0242,0.0337,0.0306,0.0303,0.03,0.0298,0,-0.0474,-0.0455,-0.0431,-0.0427,-0.036,-0.0311,-0.025,-0.011,0.0002,0.0229,0.0354,0.0531,0.0661,0.0699,0.0668,0.0617,0.0768,0.0692,0.0609,0.0594,0.0605,0.0584,0.0835,0.0835,0.0835,0.0835,0.0835,0,-0.0487,-0.0465,-0.0416,-0.0401,-0.0304,-0.0265,-0.0099,-0.0009,0.0205,0.0398,0.0501,0.0683,0.0757,0.0832,0.0758,0.0747,0.0842,0.0682,0.0645,0.0596,0.0576,0.0646,0.0624,0.0834,0.0834,0.0834,0.0835,0,-0.0476,-0.0474,-0.0426,-0.0347,-0.0305,-0.0222,-0.0017,0.0131,0.03,0.0565,0.0656,0.0839,0.092,0.0922,0.0976,0.0875,0.0854,0.0829,0.0689,0.0641,0.0544,0.0525,0.0716,0.0715,0.0714,0.0713,0.0713,0,-0.0452,-0.0436,-0.0376,-0.0313,-0.0263,-0.0118,0.0006,0.0173,0.0345,0.0649,0.0784,0.0957,0.1086,0.1082,0.0973,0.0859,0.0873,0.0728,0.0677,0.0621,0.0563,0.0545,0.0527,0.0622,0.0621,0.0619,0.0619,0,-0.038,-0.0385,-0.0331,-0.0217,-0.0115,0.0034,0.0224,0.0352,0.0582,0.0782,0.1031,0.1154,0.1168,0.1086,0.0945,0.0842,0.0736,0.0698,0.0793,0.0663,0.0533,0.0474,0.0461,0.0609,0.061,0.061,0.0611,0.0611,-0.031,-0.0266,-0.0211,-0.0087,0.0045,0.0211,0.0355,0.0541,0.0782,0.1082,0.1152,0.1286,0.1193,0.0992,0.085,0.0665,0.0682,0.058,0.0584,0.0589,0.0592,0.0471,0.0523,0.0524,0.0524,0.0524,0.0525,0,-0.0204,-0.0166,-0.0056,0.0079,0.0257,0.0311,0.0535,0.0673,0.0931,0.1099,0.1302,0.1178,0.1091,0.0949,0.066,0.0512,0.0494,0.0452,0.0463,0.0474,0.0483,0.0482,0.0382,0.0382,0.0381,0.0381,0,0,-0.0152,-0.0064,-0.002,0.0249,0.0397,0.0627,0.0759,0.0903,0.1021,0.1179,0.1223,0.1306,0.1108,0.0874,0.0694,0.0531,0.0527,0.0486,0.061,0.0654,0.0664,0.0561,0.0572,0,0,0,0,0]}],[{"header":{"parameterUnit":"m.s-1","parameterCategory":2,"la1":30.2991,"la2":30.254,"lo1":-89.0895,"lo2":-89.0444,"dy":0.0017,"dx":0.0017,"nx":28,"ny":28,"refTime":"2023-07-18T21:00:00:Z","depth":"4","parameterNumber":2,"parameterNumberName":"U-component_of_CURRENTS"},"data":[0,0,0,0,0,0,0,0,0,0,0,0,0,0,0,0,0,0,0,0,0,0,0,0,0,0,0,0,0,0,0,0,0,0,0,0,0,0,0,0,0,0,0,0,0,0,0,0,0,0,0,0,0,0,0,0,0,0,0.001,0.0009,0,-0.002,-0.002,-0.002,-0.0019,-0.0019,-0.0018,-0.0018,0.0008,0.0009,0.0009,0,0,0,0,0,0,0,0,0,0,0,0,0,0.0033,0.0033,0.001,0.0009,0.0008,-0.002,-0.002,-0.002,-0.0019,-0.0019,-0.0018,-0.0018,0.0008,0.0009,0.0009,0,0,0,0,0,0,0,0,0,0,0,0,0,0.0018,0.0033,0.001,0.0003,0.0001,-0.002,-0.002,-0.002,-0.0019,-0.0019,-0.0018,-0.0018,0.0008,0.0009,0.001,0.0013,0,0,0.0012,0.0013,0,0,0,0,0,0,0,0,0.0019,0.0018,0.0004,0.0003,0.0002,-0.0019,-0.0003,-0.0008,-0.0019,-0.0007,-0.0018,-0.0018,0.0002,0.0003,0.0002,0.0014,0.0016,0.0013,0.0013,0.0014,0.0014,0,0,0,0,0,0,0,0.002,0.0019,0.0002,0.0004,0.0002,-0.0012,-0.0013,-0.0004,0.0001,-0.0008,-0.0009,-0.0018,0.0002,0.0001,0.0003,0.0016,0.0013,0.0013,0.0014,0.0014,0.0135,0.0137,0,0,0,0,0,0,0.0018,0.002,0.0003,0.0,0.0006,-0.0012,-0.0013,-0.0009,-0.0,-0.0,-0.0019,-0.0018,-0.0001,0.0002,0.0004,0.0081,0.0014,0.0014,0.0015,0.0132,0.0135,0.0138,0,0,0,0,0,0,0.0019,0.0017,0.0004,0.0006,0.0002,-0.0013,-0.0008,-0.001,0.0013,-0.001,-0.0008,0.0008,-0.0,0.0002,0.0035,0.0079,0.0015,0.0016,0.0129,0.0133,0.0137,0.0188,0,0,0,0,0,0,0.002,0.0018,0.0029,0.0006,0.0002,0.0001,-0.0009,-0.0011,0.0003,0.0004,0.0014,0.0014,-0.0,0.0034,0.0036,0.0079,0.0016,0.0126,0.0131,0.0135,0.0183,0.0194,0.0202,0,0,0,0,0,0.0021,0.0018,0.003,0.0027,0.0015,0.0001,-0.0,-0.001,0.0005,0.0014,0.0029,0.0016,0.0067,0.0036,0.0038,0.0083,0.0123,0.0129,0.0135,0.0179,0.0192,0.0202,0,0,0,0,0,0,0.0024,0.0017,0.0029,0.0024,0.0024,0.0001,0.0001,0.001,0.0029,0.0046,0.0035,0.0037,0.0087,0.0083,0.0048,0.0137,0.0099,0.0106,0.0132,0.0144,0.0153,0.0193,0.0017,0,0,0,0,0,0.0033,0.0028,0.003,0.0022,0.0033,0.0032,0.003,0.0037,0.0042,0.0051,0.0064,0.0088,0.011,0.0124,0.014,0.0179,0.0205,0.0218,0.0227,0.0235,0.0272,0.0293,0.0307,0.0157,0.0157,0.0157,0,0,0.0022,0.002,0.0014,0.0022,0.0025,0.0038,0.0033,0.0044,0.006,0.0053,0.0095,0.012,0.0129,0.0173,0.0197,0.0176,0.0304,0.0242,0.0248,0.0283,0.0301,0.0315,0.0327,0.0161,0.0161,0.016,0,0,-0.0007,0.0014,0.0011,0.0024,0.0041,0.0049,0.0065,0.0084,0.0103,0.0148,0.0153,0.0206,0.0239,0.0253,0.0262,0.0339,0.0353,0.0359,0.0435,0.0454,0.0466,0.0476,0.0577,0.0596,0.0362,0.0362,0.0362,0,-0.0012,-0.0007,0.0006,0.0018,0.0028,0.0063,0.0081,0.0102,0.0131,0.0162,0.0174,0.028,0.0276,0.0338,0.0374,0.0359,0.0405,0.038,0.0464,0.0474,0.0484,0.0584,0.0605,0.0365,0.0365,0.0364,0.0364,0,-0.0037,-0.0015,-0.0015,0.002,0.0035,0.0055,0.0093,0.0138,0.0189,0.0219,0.0321,0.0353,0.0427,0.0433,0.0429,0.0516,0.0543,0.0467,0.0426,0.0502,0.0604,0.0624,0.037,0.0369,0.0368,0.0367,0,0,-0.0083,-0.0038,-0.0033,-0.0001,0.005,0.0061,0.011,0.0166,0.0232,0.0304,0.039,0.046,0.0534,0.0556,0.0578,0.0605,0.072,0.059,0.0589,0.068,0.0845,0.0679,0.0685,0.0654,0.0656,0.0658,0.0905,0,-0.0093,-0.0069,-0.0046,-0.0004,0.003,0.0083,0.0126,0.0188,0.0271,0.0367,0.0444,0.0549,0.0562,0.0643,0.0675,0.0687,0.077,0.0666,0.077,0.0775,0.0605,0.0699,0.0667,0.092,0.0924,0.0928,0.093,0,-0.0106,-0.0084,-0.0053,0.0023,0.0044,0.0072,0.0184,0.0239,0.0366,0.0437,0.0575,0.0661,0.0775,0.0758,0.0885,0.0824,0.0882,0.0892,0.0899,0.074,0.0643,0.0819,0.0966,0.0964,0.0961,0.0958,0.0956,0,-0.0126,-0.0075,-0.0049,-0.0029,0.005,0.0084,0.0148,0.0268,0.0348,0.0523,0.0622,0.0762,0.086,0.093,0.0968,0.0964,0.1063,0.1037,0.0976,0.0969,0.1021,0.1006,0.1167,0.1167,0.1166,0.1165,0.1165,0,-0.0129,-0.0103,-0.0052,-0.0036,0.0021,0.0093,0.0195,0.0278,0.0432,0.054,0.0691,0.0796,0.0905,0.0971,0.1014,0.1033,0.1108,0.1039,0.1011,0.1046,0.1031,0.1039,0.102,0.1175,0.1173,0.1171,0.1169,0,-0.0147,-0.0117,-0.0083,-0.0015,0.0012,0.0064,0.0203,0.029,0.0448,0.0601,0.0677,0.0845,0.0936,0.1008,0.1096,0.1076,0.1101,0.1095,0.1184,0.1149,0.1033,0.1015,0.1151,0.1147,0.1143,0.114,0.1138,0,-0.0151,-0.0139,-0.0088,-0.0072,-0.0043,0.0048,0.0112,0.0275,0.0378,0.0607,0.0667,0.0832,0.0925,0.0951,0.0989,0.108,0.1051,0.1114,0.107,0.1067,0.1028,0.1015,0.1003,0.1132,0.1132,0.1131,0.113,0,-0.0171,-0.0163,-0.0144,-0.0115,-0.0068,0.0004,0.0118,0.0184,0.0388,0.0538,0.068,0.0777,0.0852,0.0902,0.0938,0.0984,0.1084,0.108,0.109,0.105,0.1047,0.1008,0.1,0.1118,0.112,0.1121,0.1121,0,-0.0196,-0.0196,-0.0187,-0.0154,-0.0115,-0.0065,0.0011,0.014,0.0266,0.054,0.0554,0.0701,0.0822,0.0852,0.0862,0.0889,0.0938,0.0952,0.097,0.0984,0.0795,0.0758,0.0754,0,0,0,0,0,-0.0212,-0.022,-0.0221,-0.0192,-0.0162,-0.0126,-0.0002,0.0089,0.0283,0.0372,0.0486,0.0564,0.0661,0.0708,0.0715,0.078,0.0903,0.0783,0.0917,0.1052,0.1066,0.0847,0,0,0,0,0,0,-0.0226,-0.0234,-0.0241,-0.0244,-0.0227,-0.0175,-0.0106,0.0025,0.0099,0.0295,0.0339,0.0517,0.059,0.0644,0.0696,0.0716,0.0789,0.0879,0.0878,0.1044,0.1056,0.1068,0.0848,0,0,0,0,0]},{"header":{"parameterUnit":"m.s-1","parameterCategory":2,"la1":30.2991,"la2":30.254,"lo1":-89.0895,"lo2":-89.0444,"dy":0.0017,"dx":0.0017,"nx":28,"ny":28,"refTime":"2023-07-18T21:00:00:Z","depth":"4","parameterNumber":3,"parameterNumberName":"V-component_of_CURRENTS"},"data":[0,0,0,0,0,0,0,0,0,0,0,0,0,0,0,0,0,0,0,0,0,0,0,0,0,0,0,0,0,0,0,0,0,0,0,0,0,0,0,0,0,0,0,0,0,0,0,0,0,0,0,0,0,0,0,0,0,0,0.0474,0.0474,0,0.0495,0.0496,0.0496,0.0515,0.0515,0.0515,0.0515,0.0502,0.0502,0.0501,0,0,0,0,0,0,0,0,0,0,0,0,0,0.0421,0.0422,0.0474,0.0474,0.0474,0.0495,0.0496,0.0496,0.0515,0.0515,0.0515,0.0515,0.0502,0.0502,0.0501,0,0,0,0,0,0,0,0,0,0,0,0,0,0.0446,0.0423,0.0474,0.0484,0.0485,0.0495,0.0496,0.0496,0.0515,0.0515,0.0515,0.0515,0.0502,0.0502,0.0501,0.0498,0,0,0.05,0.05,0,0,0,0,0,0,0,0,0.0444,0.0448,0.0483,0.0483,0.0484,0.05,0.0472,0.0494,0.0515,0.0506,0.0515,0.0515,0.0497,0.0497,0.0505,0.0497,0.0497,0.05,0.0499,0.0499,0.0499,0,0,0,0,0,0,0,0.0443,0.0447,0.0485,0.0483,0.0484,0.0478,0.0482,0.0477,0.0502,0.0507,0.0508,0.0506,0.0497,0.0505,0.0504,0.0497,0.05,0.0499,0.0499,0.0499,0.048,0.048,0,0,0,0,0,0,0.0437,0.0446,0.0484,0.0485,0.0461,0.0479,0.0483,0.0497,0.0503,0.0504,0.0506,0.0507,0.0506,0.0505,0.0504,0.0516,0.0499,0.0499,0.0498,0.048,0.048,0.048,0,0,0,0,0,0,0.0436,0.0441,0.0483,0.0463,0.0467,0.048,0.0495,0.0498,0.0518,0.0503,0.0503,0.0525,0.0506,0.0505,0.0515,0.0515,0.0498,0.0498,0.0481,0.048,0.048,0.053,0,0,0,0,0,0,0.0435,0.0441,0.0463,0.0463,0.0468,0.0494,0.0495,0.0498,0.0515,0.0516,0.0518,0.0516,0.0506,0.0516,0.0514,0.0514,0.0498,0.0481,0.048,0.048,0.0529,0.0531,0.0534,0,0,0,0,0,0.0433,0.046,0.0465,0.047,0.0495,0.0494,0.0497,0.0506,0.0516,0.0525,0.0532,0.0517,0.0511,0.0516,0.0514,0.0514,0.0481,0.0481,0.048,0.0527,0.0531,0.0534,0,0,0,0,0,0,0.0443,0.0464,0.0469,0.0501,0.0499,0.0497,0.0513,0.0515,0.0531,0.0543,0.0528,0.0527,0.0532,0.0515,0.052,0.0504,0.0488,0.0487,0.0524,0.0527,0.053,0.0546,0.0497,0,0,0,0,0,0.0456,0.0488,0.0487,0.0512,0.0515,0.0518,0.0525,0.0531,0.0536,0.0544,0.054,0.0534,0.0526,0.0524,0.0516,0.0515,0.0486,0.0507,0.051,0.0512,0.0522,0.0446,0.0442,0.0479,0.0479,0.0479,0,0,0.0467,0.0481,0.05,0.0517,0.0522,0.0529,0.0523,0.0541,0.0553,0.0539,0.0561,0.055,0.0529,0.053,0.0528,0.0518,0.0495,0.0512,0.0515,0.0523,0.0445,0.0441,0.0438,0.0478,0.0478,0.0478,0,0,0.0484,0.0515,0.0539,0.054,0.0551,0.0556,0.0562,0.0567,0.058,0.0598,0.0583,0.0575,0.0572,0.0549,0.0539,0.0549,0.0514,0.0541,0.0568,0.0493,0.049,0.0486,0.0481,0.0477,0.0539,0.0539,0.0539,0,0.0494,0.0527,0.0541,0.0549,0.0557,0.0568,0.0579,0.0592,0.06,0.0606,0.0613,0.0599,0.0579,0.0565,0.057,0.0555,0.053,0.0561,0.0497,0.0492,0.0488,0.0483,0.0477,0.0541,0.0541,0.0541,0.0541,0,0.0507,0.0543,0.0554,0.0577,0.0583,0.0602,0.0609,0.063,0.0651,0.0649,0.0656,0.0638,0.0627,0.0609,0.0601,0.0558,0.056,0.0512,0.0492,0.0487,0.0483,0.0476,0.0545,0.0544,0.0543,0.0543,0,0,0.0516,0.0559,0.0567,0.0588,0.0607,0.0615,0.0641,0.0659,0.0686,0.0687,0.0695,0.0681,0.0674,0.0661,0.0635,0.0575,0.0532,0.054,0.0535,0.0543,0.0417,0.0398,0.0389,0.0465,0.0463,0.0461,0.0442,0,0.0528,0.0567,0.0578,0.0617,0.0641,0.0655,0.0682,0.0697,0.0716,0.0726,0.0701,0.0713,0.0692,0.0703,0.0635,0.0544,0.0511,0.0546,0.0414,0.0412,0.0398,0.0377,0.0455,0.0436,0.0435,0.0433,0.0433,0,0.054,0.0572,0.0611,0.0666,0.0676,0.0703,0.0753,0.0784,0.0792,0.0791,0.0783,0.0774,0.0721,0.0698,0.0562,0.0584,0.0523,0.0455,0.0451,0.0408,0.0377,0.043,0.042,0.0421,0.0421,0.0422,0.0423,0,0.0551,0.0602,0.0644,0.0654,0.0703,0.0738,0.0789,0.0817,0.0852,0.0853,0.0859,0.0795,0.0774,0.0663,0.0554,0.0554,0.039,0.0362,0.0305,0.0306,0.0311,0.0314,0.028,0.028,0.028,0.028,0.028,0,0.0564,0.0601,0.0667,0.0685,0.0755,0.0788,0.0872,0.0888,0.0924,0.0934,0.0919,0.0886,0.0756,0.0662,0.0557,0.0409,0.0394,0.0317,0.0282,0.0339,0.0345,0.0308,0.0312,0.0279,0.0279,0.0279,0.0279,0,0.0562,0.0602,0.0656,0.0729,0.0763,0.0827,0.094,0.0995,0.1021,0.1028,0.1036,0.0945,0.0802,0.0694,0.0497,0.0421,0.028,0.0244,0.0363,0.0336,0.0262,0.0268,0.0183,0.0182,0.0181,0.018,0.0179,0,0.0558,0.0587,0.0684,0.0726,0.0768,0.0879,0.0957,0.1033,0.1069,0.1039,0.1017,0.0924,0.0841,0.0568,0.0436,0.0269,0.0242,0.0219,0.0206,0.0268,0.0243,0.0252,0.0259,0.0178,0.0177,0.0177,0.0177,0,0.0539,0.0582,0.0625,0.0725,0.0813,0.0914,0.1022,0.1014,0.1063,0.1114,0.0975,0.0866,0.0701,0.0514,0.0407,0.0274,0.0246,0.0208,0.0209,0.0196,0.026,0.0239,0.0247,0.0173,0.0174,0.0174,0.0174,0,0.0523,0.0552,0.062,0.0707,0.083,0.0889,0.0938,0.0964,0.1003,0.0963,0.0901,0.0753,0.0696,0.0515,0.0386,0.028,0.0253,0.0235,0.0235,0.0238,0.025,0.0339,0.0244,0,0,0,0,0,0.0501,0.0531,0.0595,0.0678,0.0805,0.088,0.0956,0.0987,0.1011,0.0914,0.0909,0.0756,0.0552,0.0467,0.035,0.0355,0.0231,0.0218,0.0209,0.0153,0.0157,0.0157,0,0,0,0,0,0,0.0481,0.0538,0.0572,0.0663,0.0717,0.0844,0.0883,0.0875,0.0826,0.0823,0.071,0.0754,0.0552,0.0618,0.0354,0.0328,0.031,0.0166,0.0164,0.0151,0.0155,0.0158,0.0159,0,0,0,0,0]}]]